Date String (YYYY-MM-DD hh:mm:ss) UTC,Instrument flags,Ambient pressure (hPa),Sample flow (lpm),Bypass flow (lpm),Sample temperature (°C),Ambient temperature (°C),ASC tube jacket temperature (°C),LED temperature (°C),Box temperature (°C),Sample RH (%),Span deviation,Mass concentration (μg/m³),Mass concentration (μg/m³),Mass concentration (μg/m³)
DateTimeUTC,F1_M11,P_M11,Q1_M11,Q2_M11,T1_M11,T2_M11,T3_M11,T4_M11,T5_M11,U1_M11,ZSPAN_M11,X0_M11,X2_M11,X1_M11
2022-12-26 05:00:00,,0827.6,4.99,0.00,21.8,20.6,00.0,30.7,23.6,16.4,0000.0,0005.87,0003.76,0003.52
2022-12-26 05:01:00,,0827.6,5.03,0.00,21.8,20.6,00.0,30.7,23.6,16.1,0000.0,0006.09,0003.80,0003.55
2022-12-26 05:02:00,,0827.7,5.02,0.00,21.8,20.6,00.0,30.7,23.7,16.0,0000.0,0006.73,0003.83,0003.55
2022-12-26 05:03:00,,0827.7,4.99,0.00,21.8,20.6,00.0,30.7,23.7,15.8,0000.0,0007.71,0003.85,0003.56
2022-12-26 05:04:00,,0827.7,4.97,0.00,21.8,20.6,00.0,30.7,23.7,15.8,0000.0,0007.73,0003.85,0003.55
2022-12-26 05:05:00,,0827.8,5.02,0.00,21.8,20.6,00.0,30.7,23.7,15.9,0000.0,0007.73,0003.85,0003.55
2022-12-26 05:06:00,,0827.9,5.02,0.00,21.9,20.6,00.0,30.7,23.7,16.2,0000.0,0007.63,0003.83,0003.55
2022-12-26 05:07:00,,0827.9,5.00,0.00,21.8,20.6,00.0,30.7,23.7,16.1,0000.0,0007.55,0003.82,0003.55
2022-12-26 05:08:00,,0827.9,4.96,0.00,21.9,20.6,00.0,30.7,23.7,15.9,0000.0,0007.63,0003.84,0003.56
2022-12-26 05:09:00,,0827.9,4.98,0.00,21.9,20.6,00.0,30.7,23.7,15.9,0000.0,0007.62,0003.85,0003.57
2022-12-26 05:10:00,,0828.0,5.03,0.00,21.9,20.6,00.0,30.7,23.7,16.0,0000.0,0007.69,0003.90,0003.58
2022-12-26 05:11:00,,0828.0,5.02,0.00,21.9,20.6,00.0,30.7,23.7,16.1,0000.0,0007.69,0003.90,0003.59
2022-12-26 05:12:00,,0827.9,4.98,0.00,21.9,20.7,00.0,30.7,23.7,15.9,0000.0,0007.61,0003.90,0003.60
2022-12-26 05:13:00,,0828.0,4.97,0.00,21.9,20.7,00.0,30.7,23.7,15.8,0000.0,0007.16,0003.90,0003.60
2022-12-26 05:14:00,,0828.0,5.00,0.00,21.9,20.7,00.0,30.7,23.7,15.7,0000.0,0006.23,0003.92,0003.60
2022-12-26 05:15:00,,0828.1,5.02,0.00,21.9,20.7,00.0,30.7,23.7,15.7,0000.0,0006.24,0003.90,0003.59
2022-12-26 05:16:00,,0828.1,5.02,0.00,21.9,20.7,00.0,30.7,23.7,15.7,0000.0,0006.12,0003.87,0003.58
2022-12-26 05:17:00,,0828.1,4.99,0.00,21.9,20.7,00.0,30.8,23.7,15.5,0000.0,0006.15,0003.88,0003.58
2022-12-26 05:18:00,,0828.1,4.98,0.00,21.9,20.7,00.0,30.8,23.8,15.4,0000.0,0006.20,0003.89,0003.56
2022-12-26 05:19:00,,0828.2,4.98,0.00,21.9,20.7,00.0,30.8,23.8,15.4,0000.0,0006.01,0003.84,0003.53
2022-12-26 05:20:00,,0828.2,5.03,0.00,21.9,20.7,00.0,30.8,23.8,15.5,0000.0,0005.65,0003.74,0003.45
2022-12-26 05:21:00,,0828.2,5.03,0.00,21.9,20.7,00.0,30.8,23.8,15.5,0000.0,0005.34,0003.63,0003.37
2022-12-26 05:22:00,,0828.3,5.00,0.00,21.9,20.7,00.0,30.8,23.8,15.3,0000.0,0005.03,0003.50,0003.25
2022-12-26 05:23:00,,0828.3,4.99,0.00,21.9,20.6,00.0,30.8,23.7,15.3,0000.0,0004.99,0003.38,0003.12
2022-12-26 05:24:00,,0828.3,4.97,0.00,21.9,20.5,00.0,30.8,23.7,15.5,0000.0,0004.89,0003.30,0002.99
2022-12-26 05:25:00,,0828.4,5.00,0.00,21.8,20.5,00.0,30.8,23.7,15.7,0000.0,0004.69,0003.19,0002.87
2022-12-26 05:26:00,,0828.4,5.00,0.00,21.8,20.5,00.0,30.8,23.7,15.7,0000.0,0005.31,0003.10,0002.78
2022-12-26 05:27:00,,0828.5,5.02,0.00,21.8,20.4,00.0,30.7,23.6,15.7,0000.0,0006.22,0003.03,0002.73
2022-12-26 05:28:00,,0828.5,5.00,0.00,21.8,20.5,00.0,30.7,23.6,15.8,0000.0,0007.39,0002.94,0002.66
2022-12-26 05:29:00,,0828.6,4.97,0.00,21.9,21.0,00.0,30.7,23.8,15.9,0000.0,0007.36,0002.91,0002.65
2022-12-26 05:30:00,,0828.5,4.99,0.00,22.0,21.9,00.0,30.7,24.0,15.9,0000.0,0007.39,0002.94,0002.66
2022-12-26 05:31:00,,0828.9,5.02,0.00,22.1,22.2,00.0,30.7,24.1,15.9,0000.0,0007.50,0003.07,0002.75
2022-12-26 05:32:00,,0828.7,5.00,0.00,22.1,21.8,00.0,30.8,24.0,15.9,0000.0,0007.60,0003.16,0002.86
2022-12-26 05:33:00,,0828.8,4.97,0.00,22.1,21.4,00.0,30.8,23.9,16.1,0000.0,0007.72,0003.28,0003.07
2022-12-26 05:34:00,,0828.9,4.98,0.00,22.0,21.1,00.0,30.8,23.8,16.2,0000.0,0007.78,0003.40,0003.23
2022-12-26 05:35:00,,0828.9,5.02,0.00,22.0,20.9,00.0,30.8,23.8,16.5,0000.0,0007.82,0003.50,0003.33
2022-12-26 05:36:00,,0828.9,5.02,0.00,22.0,20.7,00.0,30.9,23.7,16.7,0000.0,0007.94,0003.57,0003.38
2022-12-26 05:37:00,,0828.8,4.99,0.00,22.0,20.5,00.0,30.8,23.7,16.9,0000.0,0007.75,0003.66,0003.46
2022-12-26 05:38:00,,0828.9,5.00,0.00,21.9,20.3,00.0,30.8,23.6,16.9,0000.0,0007.30,0003.75,0003.53
2022-12-26 05:39:00,,0829.0,4.97,0.00,21.9,20.2,00.0,30.8,23.6,17.1,0000.0,0005.95,0003.81,0003.57
2022-12-26 05:40:00,,0828.9,5.02,0.00,21.9,20.2,00.0,30.8,23.5,17.2,0000.0,0005.88,0003.85,0003.61
2022-12-26 05:41:00,,0828.7,4.99,0.00,21.8,20.1,00.0,30.8,23.5,17.4,0000.0,0005.82,0003.85,0003.63
2022-12-26 05:42:00,,0829.2,5.03,0.00,21.8,20.1,00.0,30.8,23.5,17.6,0000.0,0005.74,0003.84,0003.65
2022-12-26 05:43:00,,0828.8,5.00,0.00,21.8,20.1,00.0,30.8,23.4,17.7,0000.0,0005.69,0003.82,0003.66
2022-12-26 05:44:00,,0828.7,4.97,0.00,21.8,20.7,00.0,30.7,23.6,17.8,0000.0,0005.68,0003.80,0003.64
2022-12-26 05:45:00,,0829.1,4.99,0.00,21.9,21.7,00.0,30.7,23.9,18.0,0000.0,0005.72,0003.78,0003.62
2022-12-26 05:46:00,,0829.2,5.03,0.00,22.0,22.0,00.0,30.7,24.0,18.2,0000.0,0005.54,0003.70,0003.55
2022-12-26 05:47:00,,0829.3,5.00,0.00,22.0,21.6,00.0,30.8,23.9,18.3,0000.0,0005.38,0003.63,0003.49
2022-12-26 05:48:00,,0829.3,4.97,0.00,22.0,21.2,00.0,30.8,23.8,18.3,0000.0,0005.11,0003.55,0003.42
2022-12-26 05:49:00,,0829.1,4.99,0.00,21.9,20.8,00.0,30.8,23.6,18.5,0000.0,0004.99,0003.44,0003.33
2022-12-26 05:50:00,,0828.7,5.03,0.00,21.9,20.5,00.0,30.8,23.6,18.6,0000.0,0005.21,0003.35,0003.25
2022-12-26 05:51:00,,0829.1,5.00,0.00,21.8,20.3,00.0,30.8,23.5,18.6,0000.0,0005.00,0003.29,0003.19
2022-12-26 05:52:00,,0829.3,4.99,0.00,21.8,20.2,00.0,30.8,23.4,18.7,0000.0,0004.93,0003.23,0003.11
2022-12-26 05:53:00,,0829.3,4.97,0.00,21.8,20.2,00.0,30.8,23.4,18.8,0000.0,0004.86,0003.18,0003.00
2022-12-26 05:54:00,,0829.0,4.97,0.00,21.7,20.1,00.0,30.8,23.3,19.0,0000.0,0004.62,0003.08,0002.85
2022-12-26 05:55:00,,0828.8,5.04,0.00,21.7,20.0,00.0,30.7,23.3,19.2,0000.0,0004.52,0002.95,0002.72
2022-12-26 05:56:00,,0828.8,5.04,0.00,21.7,20.0,00.0,30.7,23.3,19.3,0000.0,0004.36,0002.82,0002.58
2022-12-26 05:57:00,,0828.8,4.99,0.00,21.7,20.0,00.0,30.7,23.3,19.4,0000.0,0004.76,0002.73,0002.49
2022-12-26 05:58:00,,0828.9,4.97,0.00,21.7,20.0,00.0,30.7,23.3,19.5,0000.0,0005.08,0002.64,0002.39
2022-12-26 05:59:00,,0829.0,4.98,0.00,21.6,20.0,00.0,30.7,23.3,19.6,0000.0,0004.97,0002.53,0002.27
